Estación de San Felipe

Ultimos registro cada 15 minutos 79
Estación Fecha / Hora Temperatura Humedad Lluvia Velocidad Dirección Radiación Presion
79 San Felipe 09-05-2026 19:30 9,4 55,8 0 0 0 0,6 937,5
78 San Felipe 09-05-2026 19:15 10,9 53,5 0 0 0 0,6 937,4
77 San Felipe 09-05-2026 19:00 8,8 61,2 0 0 0 0,6 937,4
76 San Felipe 09-05-2026 18:45 9,8 57,2 0 0 0 0,6 937,1
75 San Felipe 09-05-2026 18:30 11 51,4 0 0 0 0,6 936,9
74 San Felipe 09-05-2026 18:15 12,3 48,2 0 0 0 0,6 936,9
73 San Felipe 09-05-2026 18:00 13,8 43 0 0 0 1,9 936,7
72 San Felipe 09-05-2026 17:45 15 38,9 0 0 0 4,4 936,7
71 San Felipe 09-05-2026 17:30 16,7 35,5 0 0 0 6,9 936,5
70 San Felipe 09-05-2026 17:15 17,8 33,4 0 0 0 14,4 936,5
69 San Felipe 09-05-2026 17:00 20 28,6 0 0 0 18,1 936,5
68 San Felipe 09-05-2026 16:45 24,1 22,7 0 0 0 64,4 936,6
67 San Felipe 09-05-2026 16:30 26,1 22,4 0 0 3 196,9 936,6
66 San Felipe 09-05-2026 16:15 26,5 22 0 0 4 233,1 936,5
65 San Felipe 09-05-2026 16:00 26,4 23,7 0 0 32 269,4 936,6
64 San Felipe 09-05-2026 15:45 27,5 23 0 0 348 303,1 936,7
63 San Felipe 09-05-2026 15:30 27 23,2 0 0 222 334,4 936,7
62 San Felipe 09-05-2026 15:15 26,9 23,2 0 0 230 364,4 936,7
61 San Felipe 09-05-2026 15:00 26,2 25,2 0 0 316 393,1 936,8
60 San Felipe 09-05-2026 14:45 26,3 25,2 0 0 48 418,1 936,9
59 San Felipe 09-05-2026 14:30 25,2 28,2 0 0 177 443,1 936,9
58 San Felipe 09-05-2026 14:15 24,3 30,6 0 0 173 464,4 937,1
57 San Felipe 09-05-2026 14:00 22,4 31,8 0 0,5 190 481,9 937,4
56 San Felipe 09-05-2026 13:45 22,3 33,3 0 0,5 164 491,9 937,5
55 San Felipe 09-05-2026 13:30 22,7 33,6 0 0 142 39,4 937,4
54 San Felipe 09-05-2026 13:15 21,9 35,9 0 0 164 520,6 937,5
53 San Felipe 09-05-2026 13:00 21,3 35,5 0 0 131 529,4 937,8
52 San Felipe 09-05-2026 12:45 20,8 37,9 0 0 229 533,1 938
51 San Felipe 09-05-2026 12:30 20,3 39,3 0 0 48 529,4 938,2
50 San Felipe 09-05-2026 12:15 20,2 41,2 0 0 138 525,6 938,5
49 San Felipe 09-05-2026 12:00 19,7 42,6 0 0 160 515,6 938,6
48 San Felipe 09-05-2026 11:45 19,1 42,4 0 0 66 505,6 938,8
47 San Felipe 09-05-2026 11:30 18,5 43,5 0 0 97 491,9 938,9
46 San Felipe 09-05-2026 11:15 17,8 46,4 0 0 83 470,6 939,1
45 San Felipe 09-05-2026 11:00 16,7 50,8 0 0 95 453,1 939,3
44 San Felipe 09-05-2026 10:45 15,3 53,4 0 0 90 429,4 939,3
43 San Felipe 09-05-2026 10:30 13,1 58,5 0 0 104 398,1 939,7
42 San Felipe 09-05-2026 10:15 11,7 61,6 0 0 80 38,1 939,7
41 San Felipe 09-05-2026 10:00 11,2 65,9 0 0 58 53,1 940
40 San Felipe 09-05-2026 09:45 11,3 67,6 0 0 55 61,9 939,9
39 San Felipe 09-05-2026 09:30 8,2 75,9 0 0 49 54,4 939,8
38 San Felipe 09-05-2026 09:15 7,1 78,3 0 0 52 29,4 939,8
37 San Felipe 09-05-2026 09:00 6,2 80,7 0 0 55 29,4 939,6
36 San Felipe 09-05-2026 08:45 6,4 84,8 0 0 73 40,6 939,6
35 San Felipe 09-05-2026 08:30 5,6 89,9 0 0 97 28,1 939,4
34 San Felipe 09-05-2026 08:15 3,7 93,2 0 0 97 56,9 939,3
33 San Felipe 09-05-2026 08:00 0,3 93,3 0 0 97 40,6 939,1
32 San Felipe 09-05-2026 07:45 -0,1 93,2 0 0 97 5,6 939,3
31 San Felipe 09-05-2026 07:30 -0,1 92,9 0 0 97 3,1 939,2
30 San Felipe 09-05-2026 07:15 0,4 93,1 0 0 95 0,6 939
29 San Felipe 09-05-2026 07:00 0,6 93,2 0 0 95 0,6 939,2
28 San Felipe 09-05-2026 06:45 0,4 93 0 0 95 0,6 938,7
27 San Felipe 09-05-2026 06:30 0,4 92,7 0 0 95 0,6 938,6
26 San Felipe 09-05-2026 06:15 0,5 92,4 0 0 95 0,6 938,7
25 San Felipe 09-05-2026 06:00 0,8 92,5 0 0 129 0,6 938,6
24 San Felipe 09-05-2026 05:45 0,6 92,6 0 0 146 0,6 938,6
23 San Felipe 09-05-2026 05:30 0,5 92,3 0 0 146 0,6 938,5
22 San Felipe 09-05-2026 05:15 0,5 92 0 0 146 0,6 938,5
21 San Felipe 09-05-2026 05:00 1,2 91,8 0 0 146 0,6 938,3
20 San Felipe 09-05-2026 04:45 0,6 91,5 0 0 146 0,6 938,4
19 San Felipe 09-05-2026 04:30 0,9 91,2 0 0 146 0,6 938,4
18 San Felipe 09-05-2026 04:15 1,6 91,4 0 0 147 0,6 938,2
17 San Felipe 09-05-2026 04:00 1,3 91 0 0 147 0,6 938,2
16 San Felipe 09-05-2026 03:45 1,2 90,8 0 0 147 0,6 938
15 San Felipe 09-05-2026 03:30 1,2 90,7 0 0 147 0,6 938,3
14 San Felipe 09-05-2026 03:15 1,3 90,2 0 0 147 0,6 938,4
13 San Felipe 09-05-2026 03:00 1,5 89,9 0 0 147 0,6 938,3
12 San Felipe 09-05-2026 02:45 1,7 89,6 0 0 147 0,6 938,4
11 San Felipe 09-05-2026 02:30 1,7 88,6 0 0 147 0,6 938,6
10 San Felipe 09-05-2026 02:15 1,7 87,8 0 0 147 0,6 938,8
9 San Felipe 09-05-2026 02:00 2,6 87,6 0 0 147 0,6 938,9
8 San Felipe 09-05-2026 01:45 2,5 87,6 0 0 147 0,6 938,9
7 San Felipe 09-05-2026 01:30 2,2 86,4 0 0 147 0,6 939,2
6 San Felipe 09-05-2026 01:15 2,4 85,2 0 0 147 0,6 939
5 San Felipe 09-05-2026 01:00 3,4 84 0 0 147 0,6 939
4 San Felipe 09-05-2026 00:45 3,7 84 0 0 147 0,6 939,2
3 San Felipe 09-05-2026 00:30 3,7 84 0 0 147 0,6 939,3
2 San Felipe 09-05-2026 00:15 3,9 83,9 0 0 147 0,6 939,4
1 San Felipe 09-05-2026 00:00 3,9 83,7 0 0 146 0,6 939,5